Time,TemperatureF,DewpointF,PressureIn,WindDirection,WindDirectionDegrees,WindSpeedMPH,WindSpeedGustMPH,Humidity,HourlyPrecipIn,Conditions,Clouds,dailyrainin,SolarRadiationWatts/m^2,SoftwareType,DateUTC
2013-05-15 00:01:00,43.0,32.0,-100.00,SW,216,2.0,4.0,64,0.00,,,0.00,1.000000,,2013-05-15 06:01:00,
2013-05-15 00:22:00,43.0,32.0,-100.00,SW,216,2.0,4.0,64,0.00,,,0.00,1.000000,,2013-05-15 06:22:00,
2013-05-15 00:32:00,43.0,32.0,-100.00,SW,216,2.0,4.0,64,0.00,,,0.00,1.000000,,2013-05-15 06:32:00,
2013-05-15 00:42:00,43.0,32.0,-100.00,SW,216,2.0,4.0,64,0.00,,,0.00,1.000000,,2013-05-15 06:42:00,
2013-05-15 00:52:00,43.0,32.0,-100.00,SW,216,2.0,4.0,64,0.00,,,0.00,1.000000,,2013-05-15 06:52:00,
2013-05-15 01:01:00,41.0,32.0,-100.00,SSW,211,2.0,4.0,69,0.00,,,0.00,1.000000,,2013-05-15 07:01:00,
2013-05-15 01:22:00,41.0,32.0,-100.00,SSW,211,2.0,4.0,69,0.00,,,0.00,1.000000,,2013-05-15 07:22:00,
2013-05-15 01:32:00,41.0,32.0,-100.00,SSW,211,2.0,4.0,69,0.00,,,0.00,1.000000,,2013-05-15 07:32:00,
2013-05-15 01:42:00,41.0,32.0,-100.00,SSW,211,2.0,4.0,69,0.00,,,0.00,1.000000,,2013-05-15 07:42:00,
2013-05-15 01:52:00,41.0,32.0,-100.00,SSW,211,2.0,4.0,69,0.00,,,0.00,1.000000,,2013-05-15 07:52:00,
2013-05-15 02:01:00,38.0,31.0,-100.00,SSW,208,2.0,4.0,77,0.00,,,0.00,1.000000,,2013-05-15 08:01:00,
2013-05-15 02:21:00,38.0,31.0,-100.00,SSW,208,2.0,4.0,77,0.00,,,0.00,1.000000,,2013-05-15 08:21:00,
2013-05-15 02:32:00,38.0,31.0,-100.00,SSW,208,2.0,4.0,77,0.00,,,0.00,1.000000,,2013-05-15 08:32:00,
2013-05-15 02:42:00,38.0,31.0,-100.00,SSW,208,2.0,4.0,77,0.00,,,0.00,1.000000,,2013-05-15 08:42:00,
2013-05-15 02:53:00,38.0,31.0,-100.00,SSW,208,2.0,4.0,77,0.00,,,0.00,1.000000,,2013-05-15 08:53:00,
2013-05-15 03:01:00,38.0,32.0,-100.00,SW,225,2.0,4.0,80,0.00,,,0.00,1.000000,,2013-05-15 09:01:00,
2013-05-15 03:22:00,38.0,32.0,-100.00,SW,225,2.0,4.0,80,0.00,,,0.00,1.000000,,2013-05-15 09:22:00,
2013-05-15 03:33:00,38.0,32.0,-100.00,SW,225,2.0,4.0,80,0.00,,,0.00,1.000000,,2013-05-15 09:33:00,
2013-05-15 03:42:00,38.0,32.0,-100.00,SW,225,2.0,4.0,80,0.00,,,0.00,1.000000,,2013-05-15 09:42:00,
2013-05-15 03:53:00,38.0,32.0,-100.00,SW,225,2.0,4.0,80,0.00,,,0.00,1.000000,,2013-05-15 09:53:00,
2013-05-15 04:01:00,37.0,32.0,-100.00,West,259,0.0,3.0,82,0.00,,,0.00,1.000000,,2013-05-15 10:01:00,
2013-05-15 04:32:00,37.0,32.0,-100.00,West,259,0.0,3.0,82,0.00,,,0.00,1.000000,,2013-05-15 10:32:00,
2013-05-15 04:42:00,37.0,32.0,-100.00,West,259,0.0,3.0,82,0.00,,,0.00,1.000000,,2013-05-15 10:42:00,
2013-05-15 04:52:00,37.0,32.0,-100.00,West,259,0.0,3.0,82,0.00,,,0.00,1.000000,,2013-05-15 10:52:00,
2013-05-15 05:29:00,35.0,29.0,-100.00,SW,216,1.0,2.0,79,0.00,,,0.00,1.000000,,2013-05-15 11:29:00,
2013-05-15 05:38:00,35.0,29.0,-100.00,SW,216,1.0,2.0,79,0.00,,,0.00,1.000000,,2013-05-15 11:38:00,
2013-05-15 05:49:00,35.0,29.0,-100.00,SW,216,1.0,2.0,79,0.00,,,0.00,1.000000,,2013-05-15 11:49:00,
2013-05-15 05:57:00,35.0,29.0,-100.00,SW,216,1.0,2.0,79,0.00,,,0.00,1.000000,,2013-05-15 11:57:00,
2013-05-15 06:01:00,34.0,31.0,-100.00,WSW,239,1.0,3.0,88,0.00,,,0.00,1.000000,,2013-05-15 12:01:00,
2013-05-15 06:30:00,34.0,31.0,-100.00,WSW,239,1.0,3.0,88,0.00,,,0.00,1.000000,,2013-05-15 12:30:00,
2013-05-15 06:38:00,34.0,31.0,-100.00,WSW,239,1.0,3.0,88,0.00,,,0.00,1.000000,,2013-05-15 12:38:00,
2013-05-15 06:49:00,34.0,31.0,-100.00,WSW,239,1.0,3.0,88,0.00,,,0.00,1.000000,,2013-05-15 12:49:00,
2013-05-15 06:56:00,34.0,31.0,-100.00,WSW,239,1.0,3.0,88,0.00,,,0.00,1.000000,,2013-05-15 12:56:00,
2013-05-15 07:01:00,35.0,32.0,-100.00,WSW,246,0.0,3.0,87,0.00,,,0.00,23.000000,,2013-05-15 13:01:00,
2013-05-15 07:37:00,35.0,32.0,-100.00,WSW,246,0.0,3.0,87,0.00,,,0.00,23.000000,,2013-05-15 13:37:00,
2013-05-15 07:48:00,35.0,32.0,-100.00,WSW,246,0.0,3.0,87,0.00,,,0.00,23.000000,,2013-05-15 13:48:00,
2013-05-15 07:57:00,35.0,32.0,-100.00,WSW,246,0.0,3.0,87,0.00,,,0.00,23.000000,,2013-05-15 13:57:00,
2013-05-15 08:28:00,43.0,36.0,-100.00,NE,38,2.0,4.0,77,0.00,,,0.00,127.000000,,2013-05-15 14:28:00,
2013-05-15 08:39:00,43.0,36.0,-100.00,NE,38,2.0,4.0,77,0.00,,,0.00,127.000000,,2013-05-15 14:39:00,
2013-05-15 08:49:00,43.0,36.0,-100.00,NE,38,2.0,4.0,77,0.00,,,0.00,127.000000,,2013-05-15 14:49:00,
2013-05-15 08:56:00,43.0,36.0,-100.00,NE,38,2.0,4.0,77,0.00,,,0.00,127.000000,,2013-05-15 14:56:00,
2013-05-15 09:01:00,47.0,37.0,-100.00,East,99,2.0,4.0,69,0.00,,,0.00,257.000000,,2013-05-15 15:01:00,
2013-05-15 09:29:00,47.0,37.0,-100.00,East,99,2.0,4.0,69,0.00,,,0.00,257.000000,,2013-05-15 15:29:00,
2013-05-15 09:39:00,47.0,37.0,-100.00,East,99,2.0,4.0,69,0.00,,,0.00,257.000000,,2013-05-15 15:39:00,
2013-05-15 09:48:00,47.0,37.0,-100.00,East,99,2.0,4.0,69,0.00,,,0.00,257.000000,,2013-05-15 15:48:00,
2013-05-15 09:57:00,47.0,37.0,-100.00,East,99,2.0,4.0,69,0.00,,,0.00,257.000000,,2013-05-15 15:57:00,
2013-05-15 10:01:00,49.0,35.0,-100.00,North,0,4.0,7.0,59,0.00,,,0.00,380.000000,,2013-05-15 16:01:00,
2013-05-15 10:49:00,49.0,35.0,-100.00,North,0,4.0,7.0,59,0.00,,,0.00,380.000000,,2013-05-15 16:49:00,
2013-05-15 12:01:00,58.0,35.0,-100.00,North,11,4.0,7.0,42,-99.99,,,0.00,562.000000,,2013-05-15 18:01:00,
2013-05-15 12:28:00,58.0,35.0,-100.00,North,11,4.0,7.0,42,-99.99,,,0.00,562.000000,,2013-05-15 18:28:00,
2013-05-15 12:38:00,58.0,35.0,-100.00,North,11,4.0,7.0,42,-99.99,,,0.00,562.000000,,2013-05-15 18:38:00,
2013-05-15 12:47:00,58.0,35.0,-100.00,North,11,4.0,7.0,42,-99.99,,,0.00,562.000000,,2013-05-15 18:47:00,
2013-05-15 12:55:00,58.0,35.0,-100.00,North,11,4.0,7.0,42,-99.99,,,0.00,562.000000,,2013-05-15 18:55:00,
2013-05-15 13:01:00,63.0,36.0,-100.00,NNE,19,4.0,7.0,36,0.00,,,0.00,688.000000,,2013-05-15 19:01:00,
2013-05-15 13:39:00,63.0,36.0,-100.00,NNE,19,4.0,7.0,36,0.00,,,0.00,688.000000,,2013-05-15 19:39:00,
2013-05-15 13:56:00,63.0,36.0,-100.00,NNE,19,4.0,7.0,36,0.00,,,0.00,688.000000,,2013-05-15 19:56:00,
2013-05-15 14:01:00,64.0,34.0,-100.00,NNE,15,4.0,10.0,33,0.00,,,0.00,772.000000,,2013-05-15 20:01:00,
2013-05-15 14:40:00,64.0,34.0,-100.00,NNE,15,4.0,10.0,33,0.00,,,0.00,772.000000,,2013-05-15 20:40:00,
2013-05-15 14:47:00,64.0,34.0,-100.00,NNE,15,4.0,10.0,33,0.00,,,0.00,772.000000,,2013-05-15 20:47:00,
2013-05-15 14:54:00,64.0,34.0,-100.00,NNE,15,4.0,10.0,33,0.00,,,0.00,772.000000,,2013-05-15 20:54:00,
2013-05-15 15:01:00,65.0,37.0,-100.00,North,354,4.0,9.0,35,0.00,,,0.00,575.000000,,2013-05-15 21:01:00,
2013-05-15 15:41:00,65.0,37.0,-100.00,North,354,4.0,9.0,35,0.00,,,0.00,575.000000,,2013-05-15 21:41:00,
2013-05-15 15:51:00,65.0,37.0,-100.00,North,354,4.0,9.0,35,0.00,,,0.00,575.000000,,2013-05-15 21:51:00,
2013-05-15 15:58:00,65.0,37.0,-100.00,North,354,4.0,9.0,35,0.00,,,0.00,575.000000,,2013-05-15 21:58:00,
2013-05-15 16:01:00,66.0,36.0,-100.00,NE,37,3.0,9.0,33,0.00,,,0.00,543.000000,,2013-05-15 22:01:00,
2013-05-15 16:41:00,66.0,36.0,-100.00,NE,37,3.0,9.0,33,0.00,,,0.00,543.000000,,2013-05-15 22:41:00,
2013-05-15 16:51:00,66.0,36.0,-100.00,NE,37,3.0,9.0,33,0.00,,,0.00,543.000000,,2013-05-15 22:51:00,
2013-05-15 16:57:00,66.0,36.0,-100.00,NE,37,3.0,9.0,33,0.00,,,0.00,543.000000,,2013-05-15 22:57:00,
2013-05-15 17:39:00,68.0,38.0,-100.00,NNE,13,4.0,10.0,33,0.00,,,0.00,561.000000,,2013-05-15 23:39:00,
2013-05-15 17:50:00,68.0,38.0,-100.00,NNE,13,4.0,10.0,33,0.00,,,0.00,561.000000,,2013-05-15 23:50:00,
2013-05-15 17:57:00,68.0,38.0,-100.00,NNE,13,4.0,10.0,33,0.00,,,0.00,561.000000,,2013-05-15 23:57:00,
2013-05-15 18:01:00,67.0,36.0,-100.00,NNE,13,4.0,9.0,32,0.00,,,0.00,525.000000,,2013-05-16 00:01:00,
2013-05-15 18:37:00,67.0,36.0,-100.00,NNE,13,4.0,9.0,32,0.00,,,0.00,525.000000,,2013-05-16 00:37:00,
2013-05-15 18:51:00,67.0,36.0,-100.00,NNE,13,4.0,9.0,32,0.00,,,0.00,525.000000,,2013-05-16 00:51:00,
2013-05-15 19:01:00,64.0,39.0,-100.00,North,354,3.0,8.0,39,0.00,,,0.00,231.000000,,2013-05-16 01:01:00,
2013-05-15 19:49:00,64.0,39.0,-100.00,North,354,3.0,8.0,39,0.00,,,0.00,231.000000,,2013-05-16 01:49:00,
2013-05-15 19:57:00,64.0,39.0,-100.00,North,354,3.0,8.0,39,0.00,,,0.00,231.000000,,2013-05-16 01:57:00,
2013-05-15 20:01:00,59.0,38.0,-100.00,West,271,1.0,5.0,46,0.00,,,0.00,56.000000,,2013-05-16 02:01:00,
2013-05-15 20:28:00,59.0,38.0,-100.00,West,271,1.0,5.0,46,0.00,,,0.00,56.000000,,2013-05-16 02:28:00,
2013-05-15 20:40:00,59.0,38.0,-100.00,West,271,1.0,5.0,46,0.00,,,0.00,56.000000,,2013-05-16 02:40:00,
2013-05-15 20:47:00,59.0,38.0,-100.00,West,271,1.0,5.0,46,0.00,,,0.00,56.000000,,2013-05-16 02:47:00,
2013-05-15 20:54:00,59.0,38.0,-100.00,West,271,1.0,5.0,46,0.00,,,0.00,56.000000,,2013-05-16 02:54:00,
2013-05-15 21:01:00,58.0,37.0,-100.00,NNW,331,2.0,5.0,45,0.00,,,0.00,34.000000,,2013-05-16 03:01:00,
2013-05-15 21:40:00,58.0,37.0,-100.00,NNW,331,2.0,5.0,45,0.00,,,0.00,34.000000,,2013-05-16 03:40:00,
2013-05-15 21:46:00,58.0,37.0,-100.00,NNW,331,2.0,5.0,45,0.00,,,0.00,34.000000,,2013-05-16 03:46:00,
2013-05-15 21:56:00,58.0,37.0,-100.00,NNW,331,2.0,5.0,45,0.00,,,0.00,34.000000,,2013-05-16 03:56:00,
2013-05-15 22:01:00,54.0,37.0,-100.00,WSW,240,3.0,5.0,52,0.00,,,0.00,2.000000,,2013-05-16 04:01:00,
2013-05-15 22:23:00,54.0,37.0,-100.00,WSW,240,3.0,5.0,52,0.00,,,0.00,2.000000,,2013-05-16 04:23:00,
2013-05-15 22:33:00,54.0,37.0,-100.00,WSW,240,3.0,5.0,52,0.00,,,0.00,2.000000,,2013-05-16 04:33:00,
2013-05-15 22:42:00,54.0,37.0,-100.00,WSW,240,3.0,5.0,52,0.00,,,0.00,2.000000,,2013-05-16 04:42:00,
2013-05-15 22:53:00,54.0,37.0,-100.00,WSW,240,3.0,5.0,52,0.00,,,0.00,2.000000,,2013-05-16 04:53:00,
2013-05-15 23:01:00,50.0,39.0,-100.00,SSW,209,3.0,4.0,66,0.00,,,0.00,1.000000,,2013-05-16 05:01:00,
2013-05-15 23:22:00,50.0,39.0,-100.00,SSW,209,3.0,4.0,66,0.00,,,0.00,1.000000,,2013-05-16 05:22:00,
2013-05-15 23:32:00,50.0,39.0,-100.00,SSW,209,3.0,4.0,66,0.00,,,0.00,1.000000,,2013-05-16 05:32:00,
2013-05-15 23:42:00,50.0,39.0,-100.00,SSW,209,3.0,4.0,66,0.00,,,0.00,1.000000,,2013-05-16 05:42:00,
2013-05-15 23:52:00,50.0,39.0,-100.00,SSW,209,3.0,4.0,66,0.00,,,0.00,1.000000,,2013-05-16 05:52:00,